Regional Weather Roundup
Issued by NWS

Home | Current Version | Previous Version | Graphics & Text | Print | Product List | Glossary On
Versions: 1 2 3 4 5 6 7 8 9 10 11 12 13 14 15 16 17 18 19 20 21 22 23 24 25 26 27 28 29 30 31 32 33 34 35 36 37 38 39 40 41 42 43 44 45 46 47 48 49 50
654
ASUS43 KLSX 200907
RWRMO

WEATHER SUMMARY FOR MISSOURI
NATIONAL WEATHER SERVICE SPRINGFIELD MO
300 AM CST SAT JAN 20 2018

NOTE: "FAIR" INDICATES FEW OR NO CLOUDS BELOW 12,000 FEET WITH NO
       SIGNIFICANT WEATHER AND/OR OBSTRUCTIONS TO VISIBILITY.
       CURRENT SKY AND/OR WEATHER CONDITIONS ARE NOT AVAILABLE FOR
       CHILLICOTHE AND FARMINGTON.

MOZ001>031-035>038-043-044-053-054-201000-
...NORTHERN AND WESTERN MISSOURI...

CITY           SKY/WX    TMP DP  RH WIND       PRES   REMARKS
KANSAS CTY INT CLOUDY    41  36  82 S16       29.85R
KANSAS C DTWN  PTCLDY    43  36  76 S7        29.86R
LEE`S SUMMIT   CLOUDY    40  37  89 SW14      29.87R
ST JOSEPH      PTCLDY    36  31  82 S5        29.84R
CHILLICOTHE      N/A     37  30  75 S6        29.87R
KIRKSVILLE     CLOUDY    40  33  76 SW10      29.87R

$$
MOZ066>068-077>081-088>096-101>105-201000-
...SOUTHWEST MISSOURI...

CITY           SKY/WX    TMP DP  RH WIND       PRES   REMARKS
SPRINGFIELD    CLOUDY    48  41  76 SW20G30   29.95R
JOPLIN         CLOUDY    49  43  80 S16G30    29.94R
BRANSON        CLOUDY    46  37  71 S6        30.00R

$$
MOZ032>034-039>042-045>050-055>058-069>072-201000-
...CENTRAL MISSOURI...

CITY           SKY/WX    TMP DP  RH WIND       PRES   REMARKS
COLUMBIA       CLOUDY    36  29  75 S8        29.93R WCI  30
JEFFERSON CITY CLOUDY    36  29  75 E5        29.95S
ROLLA          CLOUDY    37  32  82 S12       29.96S WCI  29
SEDALIA        CLOUDY    44  39  82 S14       29.92R
WHITEMAN AFB   CLOUDY    40  35  84 SW10      29.86R
WARRENSBURG    CLOUDY    39  34  81 S8        29.90R
OSAGE BEACH    CLOUDY    41  37  86 SW9       29.96R

$$
MOZ051-052-059>065-201000-
...EAST CENTRAL MISSOURI...

CITY           SKY/WX    TMP DP  RH WIND       PRES   REMARKS
ST LOUIS INTL  MOCLDY    37  28  70 S7        29.98R
SPIRIT OF STL  CLOUDY    41  30  65 SW9       29.97R
ST CHARLES     CLOUDY    28  24  85 CALM      29.97S

$$
MOZ072>076-082>087-097>100-106>115-201000-
...SOUTH CENTRAL AND SOUTHEAST MISSOURI...

CITY           SKY/WX    TMP DP  RH WIND       PRES   REMARKS
CAPE GIRARDEAU FAIR      32  24  72 S7        30.10R WCI  26
FARMINGTON     CLOUDY    33  23  66 S6        30.03R WCI  28
POPLAR BLUFF   FAIR      35  27  72 SW12      30.08R WCI  27
WEST PLAINS    CLOUDY    39  30  70 S9        30.02R

$$



USA.gov is the U.S. government's official web portal to all federal, state and local government web resources and services.